Belmar-Farmingdale, NJ

7:49 AM EST on November 15, 2019 (GMT -0500)
Allaire

Weather History for KBLM - September, 2019

Change the Weather History Date:

Tuesday, September 10, 2019

  Actual Average Record
Temperature  
Mean Temperature 70 °F -  
Max Temperature 78 °F 74 °F 91 °F (2016)
Min Temperature 64 °F 60 °F 50 °F (2017)
Cooling Degree Days 6    
Growing Degree Days 20 (Base 50)    
Moisture  
Dew Point 66 °F    
Average Humidity 82    
Maximum Humidity 100    
Minimum Humidity 62    
Precipitation  
Precipitation 0.00 in - - ()
Sea Level Pressure  
Sea Level Pressure 30.34 in    
Wind  
Wind Speed 4 mph ()    
Max Wind Speed 10 mph    
Max Gust Speed 17 mph    
Visibility 10.0 miles    
Events      
Averages and records for this station are not official NWS values.
T = Trace of Precipitation, MM = Missing Value Source: Averaged Metar Reports

Daily Weather History Graph

Daily Weather History Graph

Search for Another Location

Airport or City:

Astronomy

Sep. 10, 2019 Rise Set
Actual Time 6:32 AM EDT 7:13 PM EDT
Civil Twilight 6:04 AM EDT 7:41 PM EDT
Nautical Twilight 5:32 AM EDT 8:13 PM EDT
Astronomical Twilight 4:58 AM EDT 8:47 PM EDT
Moon 5:48 PM EDT (9/10) 2:55 AM EDT (9/10)
Length of Visible Light 13h 36m
Length of Day
12h 41m
Waxing Gibbous, 89% of the Moon is Illuminated
Sep 10
Waxing Gibbous
Sep 14
Full
Sep 21
Last Quarter
Sep 28
New
Oct 5
First Quarter

Hourly Weather History & Observations

Time (EDT) Temp. Dew Point Humidity Pressure Visibility Wind Dir Wind Speed Gust Speed Precip Events Conditions
12:56 AM 66.0 °F 64.9 °F 96% 30.30 in 10.0 mi Calm Calm - N/A   Clear
1:56 AM 64.9 °F 64.9 °F 100% 30.30 in 10.0 mi Calm Calm - N/A   Clear
2:56 AM 66.0 °F 64.9 °F 96% 30.30 in 10.0 mi East 3.5 mph - N/A   Mostly Cloudy
3:56 AM 66.9 °F 66.0 °F 97% 30.30 in 10.0 mi East 3.5 mph - N/A   Overcast
4:56 AM 68.0 °F 66.9 °F 96% 30.31 in 10.0 mi Calm Calm - N/A   Overcast
5:56 AM 66.9 °F 66.0 °F 97% 30.33 in 10.0 mi Calm Calm - N/A   Overcast
6:56 AM 68.0 °F 66.9 °F 96% 30.35 in 10.0 mi Calm Calm - N/A   Overcast
7:56 AM 68.0 °F 66.9 °F 96% 30.35 in 10.0 mi Calm Calm - N/A   Overcast
9:20 AM 71.6 °F 68.0 °F 88% 30.38 in 10.0 mi ESE 3.5 mph - N/A   Overcast
9:33 AM 71.6 °F 66.2 °F 83% 30.38 in 10.0 mi ESE 4.6 mph - N/A   Overcast
9:56 AM 71.1 °F 66.0 °F 84% 30.38 in 10.0 mi SSE 4.6 mph - N/A   Overcast
10:04 AM 71.6 °F 66.2 °F 83% 30.38 in 10.0 mi ESE 5.8 mph - N/A   Overcast
10:56 AM 73.0 °F 64.9 °F 76% 30.38 in 10.0 mi SSE 8.1 mph - N/A   Overcast
11:47 AM 73.4 °F 64.4 °F 73% 30.37 in 10.0 mi SE 6.9 mph - N/A   Overcast
11:56 AM 73.9 °F 64.9 °F 73% 30.37 in 10.0 mi SE 10.4 mph - N/A   Overcast
12:21 PM 75.2 °F 64.4 °F 69% 30.37 in 10.0 mi South 8.1 mph - N/A   Overcast
12:36 PM 75.2 °F 64.4 °F 69% 30.36 in 10.0 mi SSE 8.1 mph - N/A   Mostly Cloudy
12:48 PM 75.2 °F 64.4 °F 69% 30.37 in 10.0 mi South 6.9 mph - N/A   Overcast
12:56 PM 75.0 °F 64.0 °F 69% 30.37 in 10.0 mi SSE 6.9 mph - N/A   Overcast
1:41 PM 75.2 °F 64.4 °F 69% 30.35 in 10.0 mi SE 8.1 mph - N/A   Overcast
1:56 PM 75.9 °F 64.9 °F 69% 30.35 in 10.0 mi SSE 8.1 mph - N/A   Overcast
2:56 PM 77.0 °F 63.0 °F 62% 30.33 in 10.0 mi South 9.2 mph - N/A   Mostly Cloudy
3:56 PM 77.0 °F 64.0 °F 64% 30.32 in 10.0 mi SSE 10.4 mph 17.3 mph N/A   Clear
4:56 PM 75.9 °F 66.0 °F 71% 30.31 in 10.0 mi SE 10.4 mph - N/A   Clear
5:56 PM 75.0 °F 66.9 °F 76% 30.31 in 10.0 mi SSE 8.1 mph - N/A   Clear
6:56 PM 72.0 °F 66.0 °F 81% 30.30 in 10.0 mi SSE 9.2 mph - N/A   Clear
7:56 PM 71.1 °F 66.0 °F 84% 30.30 in 10.0 mi South 6.9 mph - N/A   Clear
8:56 PM 70.0 °F 66.9 °F 90% 30.30 in 10.0 mi SSE 5.8 mph - N/A   Clear
9:56 PM 70.0 °F 66.9 °F 90% 30.30 in 10.0 mi South 5.8 mph - N/A   Clear
10:56 PM 69.1 °F 66.0 °F 90% 30.29 in 10.0 mi South 4.6 mph - N/A   Clear
11:56 PM 68.0 °F 66.0 °F 93% 30.28 in 10.0 mi South 4.6 mph - N/A   Clear